Location: Davayat
(45.9471°N, 3.1105°E)
Time: 12:59:44
(UTC+00:00)

Meteor 2-12 Rocket - Pass Details

Date: 01 December 2020
Orbit: 935 x 958 km, 82.5° (Epoch: 27 January)

Event Time Altitude Azimuth Distance (km) Brightness Sun altitude
Rises 16:26:02 0° 353° (N) 3,647 7.3 -4.2°
Reaches altitude 10° 16:28:35 10° 356° (N) 2,694 6.6 -4.5°
Maximum altitude 16:34:43 66° 78° (ENE) 1,035 4.5 -5.5°
Drops below altitude 10° 16:40:46 10° 161° (SSE) 2,661 6.9 -6.5°
Sets 16:43:16 0° 164° (SSE) 3,598 7.6 -6.8°
